[[{"header":{"parameterUnit":"m.s-1","parameterCategory":1,"la1":30.2991,"la2":30.254,"lo1":-89.0895,"lo2":-89.0444,"dy":0.0017,"dx":0.0017,"nx":28,"ny":28,"refTime":"2023-11-03T09:00:00:Z","depth":0,"parameterNumber":2,"parameterNumberName":"U-component_of_WINDS"},"data":[0,0,0,0,0,0,0,0,0,0,0,0,0,0,0,0,0,0,0,0,0,0,0,0,0,0,0,0,0,0,0,0,0,0,0,0,0,0,0,0,0,0,0,0,0,0,0,0,0,0,0,0,0,0,0,0,0,0,-0.1184,-0.1183,0,-0.1137,-0.1136,-0.1136,-0.1103,-0.1103,-0.1103,-0.1103,-0.1054,-0.1053,-0.1052,0,0,0,0,0,0,0,0,0,0,0,0,0,-0.1245,-0.1244,-0.1184,-0.1183,-0.1183,-0.1137,-0.1136,-0.1136,-0.1103,-0.1103,-0.1103,-0.1102,-0.1054,-0.1053,-0.1052,0,0,0,0,0,0,0,0,0,0,0,0,0,-0.1211,-0.1244,-0.1184,-0.1161,-0.1158,-0.1137,-0.1136,-0.1136,-0.1103,-0.1103,-0.1103,-0.1102,-0.1055,-0.1053,-0.1052,-0.1049,0,0,-0.1047,-0.1046,0,0,0,0,0,0,0,0,-0.1213,-0.1208,-0.1165,-0.1163,-0.116,-0.1126,-0.114,-0.1107,-0.1103,-0.1124,-0.1103,-0.1102,-0.1078,-0.1074,-0.1066,-0.1047,-0.1045,-0.1047,-0.1046,-0.1045,-0.1044,0,0,0,0,0,0,0,-0.1215,-0.121,-0.1165,-0.1164,-0.1161,-0.1153,-0.1148,-0.1134,-0.1104,-0.1122,-0.112,-0.1115,-0.1076,-0.1068,-0.1065,-0.1044,-0.1047,-0.1045,-0.1044,-0.1044,-0.1022,-0.1022,0,0,0,0,0,0,-0.1221,-0.1212,-0.1167,-0.1164,-0.1186,-0.1152,-0.1146,-0.1137,-0.1104,-0.1098,-0.1115,-0.1114,-0.1071,-0.1067,-0.1063,-0.1059,-0.1045,-0.1043,-0.1042,-0.1021,-0.1022,-0.1022,0,0,0,0,0,0,-0.1223,-0.1217,-0.1169,-0.1187,-0.1181,-0.1152,-0.1141,-0.1136,-0.1128,-0.1098,-0.1093,-0.1112,-0.1071,-0.1065,-0.1053,-0.1057,-0.1043,-0.1041,-0.1021,-0.1022,-0.1022,-0.1051,0,0,0,0,0,0,-0.1224,-0.1218,-0.1217,-0.1188,-0.118,-0.1159,-0.1142,-0.1136,-0.1125,-0.1122,-0.1094,-0.1089,-0.107,-0.1056,-0.1052,-0.1055,-0.104,-0.102,-0.1021,-0.1022,-0.105,-0.1053,-0.1055,0,0,0,0,0,-0.1227,-0.1226,-0.1217,-0.1211,-0.1178,-0.116,-0.1155,-0.1133,-0.1126,-0.1124,-0.1106,-0.109,-0.1057,-0.1055,-0.105,-0.1053,-0.102,-0.1021,-0.1022,-0.1049,-0.1052,-0.1055,0,0,0,0,0,0,-0.1256,-0.1222,-0.1211,-0.1201,-0.1184,-0.1154,-0.1152,-0.1138,-0.1122,-0.112,-0.1093,-0.1087,-0.1078,-0.1064,-0.1062,-0.1049,-0.1037,-0.1037,-0.1059,-0.1062,-0.1065,-0.1069,-0.1039,0,0,0,0,0,-0.1261,-0.125,-0.1221,-0.1215,-0.1207,-0.1181,-0.1172,-0.1157,-0.1138,-0.113,-0.111,-0.1092,-0.1078,-0.1069,-0.1054,-0.1047,-0.1042,-0.1047,-0.105,-0.1052,-0.1053,-0.1049,-0.1052,-0.1025,-0.1025,-0.1025,0,0,-0.1272,-0.1252,-0.1246,-0.122,-0.1205,-0.1194,-0.1175,-0.1163,-0.1155,-0.1128,-0.1116,-0.1101,-0.1079,-0.107,-0.1065,-0.1058,-0.1059,-0.1053,-0.1055,-0.1054,-0.1051,-0.1053,-0.1056,-0.1026,-0.1026,-0.1025,0,0,-0.1286,-0.127,-0.1264,-0.1249,-0.1226,-0.1209,-0.1208,-0.1181,-0.117,-0.1158,-0.1138,-0.1127,-0.1103,-0.1089,-0.1078,-0.1089,-0.1074,-0.1084,-0.1099,-0.1096,-0.1098,-0.11,-0.1105,-0.1107,-0.1085,-0.1085,-0.1085,0,-0.1303,-0.1285,-0.1262,-0.1253,-0.1242,-0.1218,-0.1212,-0.1199,-0.1172,-0.1166,-0.1158,-0.1129,-0.1112,-0.11,-0.1103,-0.1094,-0.1093,-0.1088,-0.11,-0.1101,-0.1103,-0.1107,-0.1109,-0.1086,-0.1086,-0.1086,-0.1086,0,-0.1307,-0.1296,-0.1293,-0.1269,-0.1258,-0.1251,-0.1227,-0.1219,-0.1205,-0.1189,-0.1177,-0.1156,-0.1138,-0.1134,-0.1119,-0.112,-0.1117,-0.1105,-0.1092,-0.1107,-0.1111,-0.1112,-0.1088,-0.1088,-0.1087,-0.1087,0,0,-0.1338,-0.1302,-0.1302,-0.1292,-0.1265,-0.1256,-0.1247,-0.123,-0.1224,-0.1206,-0.1199,-0.118,-0.117,-0.1158,-0.1142,-0.1139,-0.1151,-0.1128,-0.1127,-0.1134,-0.1152,-0.1162,-0.1164,-0.1141,-0.1141,-0.1141,-0.1154,0,-0.1349,-0.1333,-0.1313,-0.1304,-0.1293,-0.1271,-0.1264,-0.1247,-0.1232,-0.1221,-0.1204,-0.1192,-0.1178,-0.1171,-0.1168,-0.115,-0.1154,-0.1149,-0.1135,-0.1135,-0.1142,-0.1166,-0.1176,-0.1189,-0.1155,-0.1156,-0.1156,0,-0.136,-0.1345,-0.1335,-0.1311,-0.1306,-0.13,-0.1283,-0.1272,-0.1253,-0.1243,-0.1231,-0.1214,-0.1204,-0.1193,-0.118,-0.1177,-0.117,-0.1161,-0.1161,-0.1159,-0.1147,-0.1166,-0.1192,-0.1195,-0.1158,-0.1157,-0.1157,0,-0.1385,-0.1362,-0.1354,-0.1345,-0.1317,-0.1313,-0.1301,-0.1282,-0.1273,-0.1258,-0.1252,-0.1236,-0.1227,-0.1216,-0.1195,-0.1188,-0.1185,-0.1172,-0.1177,-0.1178,-0.1178,-0.1179,-0.1205,-0.1172,-0.1172,-0.1172,-0.1172,0,-0.14,-0.1396,-0.1365,-0.136,-0.1354,-0.1331,-0.1326,-0.1312,-0.1295,-0.1287,-0.1266,-0.1259,-0.1233,-0.1223,-0.1207,-0.12,-0.1196,-0.1187,-0.1183,-0.119,-0.1191,-0.1186,-0.1185,-0.1172,-0.1172,-0.1172,-0.1172,0,-0.1428,-0.1407,-0.1397,-0.1371,-0.1364,-0.1361,-0.1339,-0.1334,-0.1318,-0.1308,-0.1305,-0.128,-0.1268,-0.1246,-0.1227,-0.1217,-0.1213,-0.1205,-0.122,-0.1218,-0.1225,-0.1225,-0.125,-0.1252,-0.1217,-0.1217,-0.1217,0,-0.1439,-0.1435,-0.1409,-0.1403,-0.1392,-0.1381,-0.1372,-0.1349,-0.1341,-0.132,-0.1318,-0.1304,-0.1291,-0.1272,-0.1253,-0.1239,-0.1232,-0.1241,-0.1229,-0.1237,-0.1233,-0.1234,-0.1235,-0.1244,-0.1245,-0.1245,-0.1245,0,-0.1462,-0.1452,-0.1441,-0.1426,-0.1416,-0.1403,-0.1389,-0.1385,-0.1359,-0.1351,-0.1338,-0.1328,-0.131,-0.1297,-0.128,-0.1268,-0.1253,-0.1249,-0.125,-0.1257,-0.1266,-0.1263,-0.1228,-0.1249,-0.1249,-0.1248,-0.1248,-0.1248,-0.1483,-0.1479,-0.146,-0.1448,-0.1435,-0.1423,-0.1417,-0.1401,-0.139,-0.1374,-0.1361,-0.1349,-0.1332,-0.1308,-0.1297,-0.1288,-0.1281,-0.1282,-0.1282,-0.1283,-0.1286,-0.1267,-0.1285,-0.1285,-0.1284,-0.1284,-0.1284,0,-0.1506,-0.1493,-0.1482,-0.1464,-0.1454,-0.1441,-0.1425,-0.1419,-0.1409,-0.1394,-0.1382,-0.1369,-0.1356,-0.1336,-0.1322,-0.1319,-0.1312,-0.1317,-0.1317,-0.1315,-0.1293,-0.1294,-0.1323,-0.1323,-0.1323,-0.1323,-0.1323,-0.1323,-0.1517,-0.151,-0.1498,-0.1485,-0.1472,-0.1461,-0.1453,-0.1442,-0.143,-0.1416,-0.1406,-0.1393,-0.1376,-0.1361,-0.135,-0.1344,-0.1341,-0.1348,-0.134,-0.132,-0.1316,-0.1313,-0.1314,-0.1347,-0.1347,-0.1363,-0.1363,-0.1364]},{"header":{"parameterUnit":"m.s-1","parameterCategory":1,"la1":30.2991,"la2":30.254,"lo1":-89.0895,"lo2":-89.0444,"dy":0.0017,"dx":0.0017,"nx":28,"ny":28,"refTime":"2023-11-03T09:00:00:Z","depth":0,"parameterNumber":3,"parameterNumberName":"V-component_of_WINDS"},"data":[0,0,0,0,0,0,0,0,0,0,0,0,0,0,0,0,0,0,0,0,0,0,0,0,0,0,0,0,0,0,0,0,0,0,0,0,0,0,0,0,0,0,0,0,0,0,0,0,0,0,0,0,0,0,0,0,0,0,0.4536,0.4536,0,0.4529,0.4529,0.4529,0.454,0.4541,0.4541,0.4542,0.4533,0.4533,0.4532,0,0,0,0,0,0,0,0,0,0,0,0,0,0.4557,0.4557,0.4536,0.4536,0.4536,0.4529,0.4529,0.4529,0.454,0.4541,0.4541,0.4542,0.4533,0.4533,0.4532,0,0,0,0,0,0,0,0,0,0,0,0,0,0.4549,0.4557,0.4536,0.4541,0.4541,0.4529,0.4529,0.4529,0.454,0.4541,0.4542,0.4542,0.4534,0.4533,0.4532,0.4514,0,0,0.4529,0.4529,0,0,0,0,0,0,0,0,0.4549,0.4548,0.454,0.4541,0.4541,0.4536,0.4533,0.4524,0.454,0.4541,0.4542,0.4542,0.4534,0.4533,0.453,0.4514,0.4513,0.4529,0.4528,0.4528,0.4528,0,0,0,0,0,0,0,0.455,0.4548,0.4533,0.454,0.4541,0.4543,0.4542,0.4531,0.4534,0.4541,0.4541,0.4541,0.4534,0.4531,0.453,0.4513,0.4529,0.4528,0.4528,0.4527,0.4479,0.4478,0,0,0,0,0,0,0.455,0.4549,0.4533,0.4533,0.4547,0.4542,0.4541,0.4537,0.4534,0.4534,0.454,0.4541,0.4532,0.4531,0.453,0.4507,0.4528,0.4527,0.4527,0.448,0.4479,0.4478,0,0,0,0,0,0,0.455,0.4549,0.4534,0.4541,0.4539,0.4541,0.4536,0.4537,0.4534,0.4533,0.4534,0.4537,0.4533,0.4531,0.4517,0.4506,0.4527,0.4526,0.4481,0.448,0.4479,0.4462,0,0,0,0,0,0,0.4551,0.4549,0.4543,0.4541,0.4539,0.4522,0.4536,0.4536,0.4532,0.4534,0.453,0.453,0.4533,0.4519,0.4516,0.4506,0.4525,0.4482,0.448,0.4479,0.4463,0.446,0.4457,0,0,0,0,0,0.4552,0.4539,0.4542,0.454,0.4532,0.4522,0.452,0.4524,0.4531,0.4525,0.4524,0.4531,0.4508,0.4517,0.4515,0.4503,0.4482,0.4481,0.4479,0.4464,0.4461,0.4457,0,0,0,0,0,0,0.4539,0.4538,0.4543,0.4529,0.4525,0.4524,0.4515,0.452,0.4514,0.4516,0.452,0.4519,0.4504,0.4503,0.4512,0.4485,0.4496,0.4494,0.4486,0.4483,0.448,0.448,0.4524,0,0,0,0,0,0.4535,0.4527,0.4527,0.4514,0.4513,0.4514,0.451,0.4513,0.4509,0.4508,0.4507,0.4502,0.4494,0.4488,0.4481,0.4463,0.4461,0.4454,0.4451,0.4449,0.4447,0.4434,0.443,0.4473,0.4473,0.4473,0,0,0.4525,0.4524,0.4519,0.4512,0.4509,0.45,0.4513,0.4504,0.4496,0.4506,0.4493,0.4492,0.4487,0.447,0.4463,0.4469,0.4435,0.4447,0.4445,0.4444,0.4432,0.4428,0.4424,0.4472,0.4472,0.4472,0,0,0.4503,0.4503,0.4491,0.4488,0.4484,0.4485,0.4482,0.448,0.4479,0.4466,0.4472,0.4464,0.445,0.4446,0.4442,0.4416,0.4421,0.4414,0.4399,0.4386,0.4383,0.438,0.4368,0.4364,0.4412,0.4412,0.4412,0,0.4492,0.4479,0.4484,0.4474,0.4469,0.4478,0.4465,0.4462,0.4456,0.4452,0.4459,0.444,0.4438,0.4419,0.4413,0.441,0.4405,0.4414,0.4383,0.438,0.4378,0.4366,0.4362,0.4411,0.4411,0.4411,0.4411,0,0.4464,0.4456,0.4447,0.444,0.4435,0.4423,0.4425,0.4419,0.4422,0.4422,0.4407,0.4404,0.4395,0.4391,0.4395,0.4372,0.4376,0.4383,0.4394,0.4372,0.4362,0.4358,0.4409,0.441,0.441,0.441,0,0,0.4434,0.4429,0.4426,0.4422,0.4418,0.441,0.4398,0.439,0.4383,0.4379,0.4367,0.4355,0.4361,0.4356,0.4359,0.4348,0.4325,0.4357,0.4356,0.4349,0.4297,0.429,0.4285,0.4329,0.4328,0.4327,0.4296,0,0.441,0.439,0.4393,0.4373,0.4364,0.4371,0.436,0.4355,0.4355,0.4346,0.4345,0.4335,0.4345,0.4342,0.4332,0.433,0.4314,0.4333,0.4316,0.4315,0.4315,0.428,0.4273,0.4244,0.4293,0.4292,0.4292,0,0.438,0.4374,0.4352,0.4347,0.4343,0.4334,0.4325,0.4317,0.4311,0.4311,0.4305,0.4309,0.4295,0.4308,0.4287,0.43,0.4293,0.4291,0.429,0.4287,0.4301,0.4273,0.4235,0.4229,0.4286,0.4286,0.4286,0,0.4357,0.4343,0.4328,0.4325,0.4319,0.4312,0.4309,0.4304,0.4298,0.429,0.4285,0.4276,0.427,0.4262,0.4262,0.4272,0.4241,0.4254,0.4238,0.4238,0.423,0.423,0.4187,0.423,0.423,0.423,0.423,0,0.4329,0.4315,0.4317,0.4308,0.4291,0.4295,0.4278,0.4277,0.4272,0.426,0.4267,0.4256,0.4258,0.4247,0.4248,0.4229,0.4227,0.4225,0.4225,0.4223,0.4223,0.4217,0.4218,0.4229,0.4229,0.4229,0.423,0,0.43,0.4302,0.4285,0.4281,0.4279,0.4267,0.4263,0.4253,0.4252,0.4238,0.4235,0.4234,0.422,0.4221,0.4206,0.4206,0.4182,0.4186,0.4184,0.4184,0.4167,0.4167,0.4117,0.4109,0.4159,0.4159,0.4158,0,0.4282,0.4271,0.4265,0.4258,0.4255,0.4244,0.4237,0.424,0.4232,0.4224,0.4214,0.4202,0.4192,0.417,0.4167,0.4155,0.4156,0.414,0.4155,0.4152,0.4153,0.4152,0.415,0.4136,0.4135,0.4135,0.4135,0,0.4247,0.4248,0.4238,0.4228,0.422,0.4212,0.4205,0.4199,0.42,0.4191,0.4178,0.417,0.4154,0.4141,0.4129,0.4125,0.4128,0.413,0.4125,0.4122,0.412,0.4118,0.4173,0.4131,0.4131,0.4132,0.4132,0.4132,0.4221,0.4211,0.4205,0.4193,0.4188,0.418,0.417,0.4168,0.4157,0.4144,0.4146,0.413,0.4122,0.4107,0.4101,0.4088,0.4093,0.4087,0.4085,0.4083,0.4079,0.4124,0.4086,0.4086,0.4086,0.4086,0.4086,0,0.4185,0.4181,0.417,0.4159,0.415,0.4156,0.4147,0.4138,0.4124,0.4117,0.4107,0.4089,0.4076,0.4071,0.4058,0.4047,0.4049,0.4043,0.4043,0.4041,0.4077,0.4081,0.4042,0.4042,0.4042,0.4042,0.4042,0.4042,0.4165,0.4147,0.4146,0.4125,0.4121,0.4105,0.4099,0.4092,0.4086,0.4066,0.4055,0.4052,0.4045,0.4031,0.4017,0.4016,0.401,0.4003,0.4002,0.4035,0.4039,0.4043,0.4047,0.4002,0.4002,0.3967,0.3967,0.3967]}]]